Theta_e
303 302 303 303 303 304 304 304 305 305 306 306 307 307 307 308 308 308 308 309 312 312 312 312 311 312 311 316 322 325 322 322 320 314 318 318 318 319 317 317 319 317 317 322 324 325 326
302 302 303 303 303 304 304 305 306 306 306 307 307 308 308 308 308 308 308 311 312 313 313 312 312 312 311 319 321 321 320 323 321 317 318 319 319 319 320 319 317 321 320 321 323 324 324
302 302 303 303 304 304 305 306 306 307 308 308 309 309 309 309 309 308 310 311 312 313 314 314 312 312 312 319 322 323 323 322 322 321 321 321 320 319 320 317 321 321 318 317 320 323 322
302 302 303 304 305 305 306 307 308 309 310 310 310 310 310 309 309 309 310 311 313 313 313 315 315 314 319 322 321 323 322 323 322 320 321 320 319 320 320 320 320 318 320 316 317 320 323
302 303 304 305 305 306 307 308 309 310 311 312 312 312 311 310 310 310 310 314 314 313 313 315 319 321 328 321 318 322 322 323 322 321 320 318 318 320 319 316 315 319 318 317 317 320 321
303 304 304 305 306 307 309 310 311 311 312 312 313 313 312 311 310 310 316 317 317 315 317 317 326 325 326 324 319 320 322 323 324 322 319 318 318 316 314 315 316 318 319 318 319 321 320
304 304 305 306 307 308 309 311 312 313 313 313 313 313 312 311 310 314 319 322 322 323 322 327 328 323 323 321 322 320 322 322 323 320 317 319 315 315 316 317 319 321 321 321 322 323 323
304 305 306 307 308 309 310 312 312 313 313 313 313 313 313 311 311 317 319 318 317 319 320 323 325 322 322 321 321 320 322 322 323 322 319 319 317 319 322 323 322 321 320 320 321 322 325
305 306 307 308 310 311 312 313 313 314 314 314 314 314 314 311 315 318 319 318 318 319 321 325 324 323 322 321 321 322 323 323 323 323 323 323 323 324 324 322 322 320 320 320 320 321 322
305 306 308 310 312 312 313 314 314 314 314 314 314 313 314 312 319 320 321 320 319 319 321 327 322 323 321 321 322 322 323 324 324 323 323 323 325 324 323 323 322 320 321 323 322 321 319
305 306 308 310 311 313 313 313 314 314 315 315 314 314 314 312 314 323 320 321 319 321 332 325 323 323 321 320 322 322 322 322 323 323 323 323 323 324 324 323 322 322 325 325 325 323 323
305 305 307 309 311 313 313 313 314 314 314 315 315 314 314 316 322 324 321 321 320 323 327 323 324 323 321 322 323 323 324 323 323 323 324 324 325 326 325 324 324 325 324 323 323 322 322
304 305 306 309 311 313 313 313 314 314 314 314 315 315 314 313 324 321 321 322 323 323 324 322 322 323 323 324 324 324 323 322 322 326 327 328 328 328 327 324 323 324 323 322 323 323 324
304 305 306 307 310 312 313 313 314 315 314 314 315 315 314 314 314 321 321 323 324 325 324 323 322 322 322 324 324 325 325 323 323 327 325 329 331 329 328 326 325 325 325 323 330 329 327
304 305 305 306 308 310 311 312 313 313 314 314 315 315 319 321 320 320 322 325 323 325 323 322 321 320 321 323 323 323 325 330 330 327 327 327 331 329 330 328 325 325 323 327 328 326 326
304 304 305 305 306 307 309 309 309 310 311 313 314 318 320 324 320 320 324 325 325 324 323 322 320 322 322 323 322 320 321 330 330 326 325 327 328 328 329 328 326 324 327 328 328 332 332
304 304 305 305 305 306 307 309 310 310 310 311 314 322 323 322 320 322 324 325 325 322 322 324 324 327 325 324 323 322 328 328 326 326 324 326 328 328 328 327 323 321 329 327 325 330 330
303 304 305 305 305 306 307 311 312 312 311 312 314 324 322 320 321 323 323 325 323 322 320 320 322 324 325 327 326 323 328 327 323 323 325 326 327 329 328 326 323 321 323 326 324 323 332
303 304 304 305 305 305 307 311 312 312 313 313 314 319 320 319 320 321 324 327 323 322 321 322 322 324 325 325 326 325 326 323 322 325 324 322 327 327 321 321 321 323 328 328 326 327 327
303 304 304 305 305 305 307 310 312 312 312 312 315 321 321 320 319 323 324 325 323 319 320 321 323 323 325 325 324 325 325 326 321 320 319 320 322 324 322 320 320 322 323 327 326 327 327
303 303 304 304 305 305 306 311 312 312 312 313 318 321 318 320 321 321 320 321 323 322 320 320 321 321 323 326 324 323 325 325 322 319 320 319 321 324 323 324 323 322 322 322 326 325 325
303 303 304 304 305 305 306 311 311 312 313 315 316 315 315 316 318 320 320 320 320 321 322 322 321 322 322 323 322 323 322 322 324 321 321 320 323 325 326 324 322 322 321 319 319 319 318
303 303 303 304 304 304 306 311 312 311 312 313 312 313 314 316 318 319 320 322 322 320 320 318 317 318 320 317 315 315 315 318 320 320 321 322 323 324 325 323 321 320 321 321 320 320 320
302 303 303 303 304 304 306 312 311 312 311 311 311 311 312 316 317 318 320 318 318 317 317 317 316 316 315 314 314 315 315 316 316 316 318 320 320 321 321 320 321 319 320 320 320 321 321
302 302 302 303 303 304 305 311 310 311 311 311 310 311 312 315 316 317 317 316 316 315 315 315 315 314 313 312 312 313 314 316 315 314 314 317 318 318 319 320 320 320 319 319 319 322 327
301 301 302 303 303 304 305 310 310 311 311 310 310 310 310 311 315 314 314 314 314 315 316 316 312 312 311 310 311 312 314 318 319 319 315 316 316 317 318 320 321 321 320 321 324 325 325
302 302 303 303 304 304 307 309 310 310 311 310 309 309 307 310 312 311 312 312 311 311 313 314 312 311 310 310 311 311 312 314 315 316 320 317 318 317 317 317 318 319 322 324 324 325 323
304 303 303 304 303 305 307 309 309 310 310 309 308 308 307 308 309 309 308 309 310 311 311 312 312 312 310 311 311 312 313 313 314 316 317 320 320 319 317 318 318 322 325 326 325 324 320
305 304 304 304 305 307 308 308 308 308 308 307 306 307 306 305 306 308 307 308 308 308 307 309 311 311 312 311 311 311 313 312 314 315 316 317 319 321 322 320 322 320 322 322 321 323 318
Wind_Speed
3 3 4 5 6 7 7 8 10 11 12 13 14 15 15 15 15 15 14 12 11 11 10 10 9 7 9 6 10 5 2 1 2 8 11 5 12 13 6 13 18 8 14 31 32 28 27
3 4 4 6 6 7 8 9 11 12 13 14 14 16 16 16 16 15 13 9 11 8 7 7 6 7 5 4 3 4 5 3 2 5 8 6 12 13 18 14 5 19 16 25 24 28 23
3 4 5 6 7 8 9 11 12 13 15 15 15 16 16 16 16 15 9 9 10 7 6 5 4 6 8 13 2 5 2 3 1 3 10 16 17 19 14 8 16 21 9 10 12 11 10
4 4 5 6 7 9 10 12 13 14 15 16 16 16 17 16 16 13 9 10 8 5 4 4 4 5 7 1 3 8 6 6 5 9 11 11 9 11 10 16 20 8 5 6 10 8 17
4 4 6 6 8 9 11 12 14 15 16 16 17 16 16 16 15 11 10 8 6 1 2 3 0 4 8 9 12 8 9 8 6 6 7 8 10 10 13 6 7 6 6 8 11 16 11
3 4 5 7 8 9 11 13 14 15 17 18 17 17 15 15 13 10 8 6 5 1 2 2 5 6 7 14 3 8 10 9 5 7 7 5 6 4 4 2 7 7 6 9 9 13 9
3 4 6 7 9 11 12 14 15 17 18 18 17 17 14 13 9 6 8 4 7 2 8 11 11 8 8 8 6 6 10 7 9 8 6 13 2 8 14 14 12 9 6 8 9 13 2
4 5 7 9 10 12 14 15 16 17 18 18 17 16 13 10 5 4 7 10 6 8 11 17 17 13 8 3 6 10 10 8 12 8 10 1 9 15 9 4 4 8 8 11 11 9 3
4 6 8 10 12 13 14 15 17 18 18 18 17 16 12 8 2 5 6 7 11 11 5 13 19 10 7 9 11 15 14 14 10 9 10 8 10 8 2 7 7 6 6 8 9 11 9
5 6 8 10 12 13 15 16 17 18 18 18 17 16 12 6 2 7 4 8 8 12 3 6 9 6 9 9 6 14 14 15 6 10 10 8 8 5 5 4 6 5 10 8 12 5 4
5 6 8 10 11 13 14 16 17 18 18 17 17 15 9 5 3 6 10 11 15 0 3 10 8 14 11 11 13 7 11 12 10 12 6 12 7 3 1 9 9 8 6 6 7 8 7
6 7 8 10 11 13 15 16 18 19 19 16 16 14 7 4 2 8 11 11 8 2 5 5 8 8 9 16 10 12 8 9 14 8 11 11 10 4 2 8 6 7 7 9 7 2 5
7 7 8 10 11 13 15 17 18 19 20 17 15 13 8 8 4 6 14 10 1 3 3 7 6 6 12 10 7 8 8 6 4 3 4 8 4 5 8 2 8 3 1 3 5 1 8
7 8 9 10 12 13 16 18 19 19 21 18 15 12 8 8 8 7 8 3 4 7 8 4 5 1 5 1 3 3 4 6 7 1 5 4 7 11 4 0 2 6 5 5 3 5 6
8 8 9 10 12 14 16 18 20 20 20 19 16 11 5 2 2 5 7 3 5 5 14 4 2 2 5 3 1 6 5 4 3 7 3 4 7 6 16 8 4 7 4 2 7 6 4
10 9 9 10 11 13 15 18 20 20 19 20 18 13 6 4 4 4 1 5 5 10 6 7 3 3 6 5 6 5 4 5 4 8 11 4 3 5 12 7 6 5 2 6 5 2 7
11 10 10 10 11 12 14 17 20 20 18 16 13 7 5 8 5 4 3 6 11 13 8 5 7 7 7 6 2 3 4 9 8 6 4 4 1 6 8 3 9 8 3 6 3 2 3
13 11 10 10 10 11 12 15 19 21 18 11 5 2 7 2 3 5 4 5 7 10 7 2 3 5 6 8 7 5 6 4 5 4 3 2 2 3 7 14 10 7 3 4 5 6 1
15 12 11 10 10 10 10 12 17 21 20 20 12 8 8 6 2 4 9 14 3 4 3 2 3 4 5 6 5 5 3 5 4 5 3 4 4 4 9 6 6 5 6 3 3 2 4
17 14 12 11 10 9 9 11 13 16 17 17 5 3 4 10 12 7 6 7 2 5 2 5 6 9 5 3 5 4 4 5 7 7 8 5 1 3 5 6 4 7 10 3 6 3 4
18 16 13 12 10 9 8 9 12 12 11 12 2 3 8 4 7 7 8 9 9 2 4 4 1 6 7 2 6 7 6 2 9 12 5 4 2 3 8 11 13 12 12 9 5 6 5
19 17 15 13 10 9 7 7 10 12 3 6 8 7 11 13 13 6 4 5 9 10 1 6 6 6 6 4 6 6 6 6 6 6 5 4 3 4 5 11 14 17 13 11 10 11 11
19 18 16 14 11 9 7 6 8 10 7 2 10 5 4 10 8 5 5 7 6 4 6 9 9 6 9 8 10 8 6 7 5 3 4 4 1 0 4 8 14 9 9 9 9 9 8
21 19 17 14 12 10 8 6 6 7 8 5 7 8 5 4 6 8 12 10 6 7 3 9 6 3 3 8 10 7 9 12 12 12 11 3 3 1 3 6 8 8 7 11 14 10 11
21 19 18 16 13 11 10 7 5 7 6 4 2 6 4 4 10 15 14 12 7 2 1 3 4 6 1 8 5 5 3 3 8 15 12 13 5 1 2 5 14 14 15 8 11 16 14
22 20 18 16 14 12 11 8 6 7 5 4 6 4 3 6 2 13 14 15 3 4 4 8 13 9 3 3 0 4 4 1 4 4 12 8 7 5 3 4 5 3 4 15 8 6 11
23 21 19 18 16 14 12 10 9 9 7 6 8 7 5 6 12 10 6 4 8 8 3 3 7 5 3 3 3 4 5 5 5 5 1 5 5 12 9 6 6 3 14 15 3 5 6
23 20 19 18 16 15 12 12 11 11 9 7 8 4 4 5 18 12 6 9 7 7 1 7 2 2 2 2 2 3 4 5 5 6 7 6 6 7 8 10 12 11 7 3 1 8 17
24 21 20 18 15 13 15 14 11 12 9 7 5 4 6 9 9 10 12 12 7 5 4 3 5 5 4 1 1 3 3 4 4 4 5 4 2 3 4 5 8 5 4 5 4 4 9
Wind_Direction
45 33 21 17 8 359 351 349 343 345 339 340 336 332 330 330 327 326 325 324 323 310 293 282 277 277 288 289 272 271 244 264 240 188 186 256 286 274 235 236 253 237 251 259 267 276 286
43 34 25 16 11 355 353 350 346 343 341 340 337 334 332 331 330 330 330 325 321 306 303 299 281 265 266 271 321 293 236 210 151 169 181 220 255 260 273 282 261 269 263 258 268 275 287
37 30 21 13 8 357 354 349 348 344 340 341 339 335 333 331 332 333 330 325 315 295 307 298 273 260 258 230 43 295 253 187 151 283 265 269 262 268 309 311 287 292 296 308 285 269 275
31 26 12 9 4 358 351 350 346 344 343 341 341 337 334 333 335 335 329 329 331 289 269 263 265 280 263 204 225 221 243 228 281 245 278 297 309 309 307 298 306 300 299 279 282 276 269
26 15 11 3 359 356 351 348 345 345 344 345 341 339 336 335 336 341 337 340 345 350 258 238 115 317 273 227 227 204 212 234 225 256 268 280 295 288 271 271 306 285 239 245 264 248 228
21 13 3 359 355 352 350 347 345 344 346 345 342 339 338 335 337 344 351 328 320 306 298 218 233 302 251 243 181 192 219 254 254 263 260 238 240 230 280 206 241 264 239 269 246 250 231
12 4 358 355 351 350 349 346 346 346 345 345 342 338 339 335 337 355 12 18 347 319 274 236 275 248 271 149 195 235 213 224 243 222 244 218 154 220 229 231 233 255 292 316 308 321 148
356 356 355 352 350 350 348 348 344 345 343 344 342 337 336 338 336 13 19 13 14 323 301 277 253 258 270 280 199 201 188 217 234 241 249 249 232 242 252 271 14 3 345 312 309 315 19
346 351 351 354 352 352 349 348 345 342 342 342 342 339 338 340 28 17 0 11 354 321 275 294 226 256 203 203 238 178 183 223 261 257 254 223 244 251 9 343 345 323 290 291 283 310 335
333 342 348 352 351 352 351 350 346 342 342 342 342 339 335 338 354 351 299 341 330 324 325 252 188 196 160 199 242 212 184 217 258 237 263 266 260 72 58 307 287 289 256 270 248 324 282
320 335 341 346 348 349 349 350 348 345 344 342 337 336 333 328 335 30 348 340 325 344 297 165 168 164 175 210 139 173 190 205 254 281 324 285 308 186 242 249 248 243 356 358 344 347 22
306 322 333 339 344 346 348 349 349 346 342 339 335 332 326 275 151 3 344 318 325 8 252 134 145 182 176 221 218 154 181 233 286 296 304 286 292 343 330 344 341 9 354 352 341 333 312
299 315 326 335 340 345 344 344 347 345 339 338 332 326 306 255 211 22 326 314 346 221 308 161 186 173 208 211 197 164 170 174 217 309 291 324 322 348 308 226 309 179 53 316 324 337 237
290 305 318 328 334 339 341 340 342 343 338 337 330 322 299 273 249 354 324 333 246 262 262 56 23 107 322 277 296 183 187 198 232 23 10 14 350 346 312 28 291 337 172 166 294 316 273
279 295 310 321 329 334 336 337 339 339 338 329 333 321 300 147 48 343 300 264 237 2 349 39 220 259 270 202 216 354 288 128 112 55 86 357 337 328 331 325 62 312 343 298 229 292 7
270 286 301 314 324 329 335 337 337 339 337 327 338 335 292 155 220 224 247 257 298 288 7 360 340 299 263 256 151 170 279 25 99 76 64 342 334 295 307 293 271 214 6 23 18 47 315
262 275 290 305 316 327 337 342 340 341 340 331 340 342 179 168 269 232 221 253 312 69 55 353 338 344 323 350 353 348 25 45 41 42 50 20 43 306 347 311 8 347 28 59 118 178 238
254 265 280 295 309 325 337 345 345 344 348 334 341 285 208 178 236 220 230 248 305 102 79 327 302 322 318 356 6 352 67 61 33 358 42 30 212 270 250 284 292 283 1 105 102 295 127
253 259 270 284 300 315 329 342 347 350 350 356 338 276 248 247 238 254 287 263 176 16 58 320 317 343 15 354 9 355 39 103 25 62 66 330 342 338 327 337 29 30 42 146 172 360 252
245 251 258 270 284 300 316 333 342 345 339 344 331 296 219 220 245 282 318 306 169 111 31 346 1 347 3 338 318 306 310 160 96 113 121 91 228 191 217 264 317 309 315 122 117 109 276
240 244 250 259 272 291 308 323 334 346 328 338 284 336 4 331 356 354 1 339 316 105 220 121 6 259 274 268 300 288 324 101 155 145 110 113 237 273 283 293 301 296 295 294 187 236 218
236 239 244 251 263 275 289 309 330 349 344 12 342 358 341 305 312 302 316 300 308 294 269 194 183 296 330 21 45 27 22 31 53 316 159 179 253 331 305 299 290 289 285 274 275 275 282
232 235 241 247 254 262 272 289 320 338 355 356 358 322 346 296 312 311 256 249 285 320 9 56 58 19 55 24 355 339 330 294 282 327 334 347 156 6 256 307 318 298 257 275 264 255 233
230 231 234 238 244 249 250 262 310 341 0 4 35 359 305 288 307 293 312 326 2 42 16 7 67 64 62 2 335 319 298 277 270 264 235 242 7 5 265 358 268 245 259 275 282 286 323
228 229 230 232 235 240 239 249 292 318 314 327 90 341 302 288 294 290 331 328 226 161 282 301 321 118 89 36 12 321 276 277 245 239 227 187 165 256 199 214 281 298 299 303 308 296 356
224 225 226 228 230 234 236 244 286 311 288 259 244 235 272 307 222 349 323 311 327 347 312 239 112 151 135 79 242 231 233 278 269 242 225 155 160 160 197 236 258 13 328 4 326 278 10
222 222 224 223 226 229 231 259 290 295 276 250 248 247 245 270 285 10 357 330 358 360 321 342 149 95 122 151 220 233 246 262 236 249 5 175 184 204 215 229 268 307 326 351 276 288 27
220 220 223 224 223 225 238 271 283 283 271 240 194 215 247 258 270 300 309 339 308 292 340 359 24 150 154 164 239 249 259 239 247 251 245 202 181 210 219 234 264 8 32 33 259 32 24
215 217 220 219 218 239 262 263 266 274 264 227 214 268 285 261 251 254 258 224 242 251 317 312 302 328 11 173 100 336 342 343 344 285 312 279 186 219 192 209 171 359 172 132 324 305 353